Regional Weather Roundup
Issued by NWS

Home | Current Version | Previous Version | Text Only | Print | Product List | Glossary Off
Versions: 1 2 3 4 5 6 7 8 9 10 11 12 13 14 15 16 17 18 19 20 21 22 23 24 25 26 27 28 29 30 31 32 33 34 35 36 37 38 39 40 41 42 43 44 45 46 47 48 49 50

000
ASUS43 KIND 170859
RWRIN

WEATHER ROUNDUP FOR INDIANA
NATIONAL WEATHER SERVICE INDIANAPOLIS IN
400 AM EST TUE JAN 17 2017

NOTE: "FAIR" INDICATES FEW OR NO CLOUDS BELOW 12,000 FEET WITH NO
SIGNIFICANT WEATHER AND/OR OBSTRUCTIONS TO VISIBILITY.

* - STATION DOES NOT REPORT WEATHER SUCH AS PRECIPITATION OR FOG.

+ - STATION NOT QUALITY CONTROLLED BY THE NATIONAL WEATHER SERVICE.
    USE DATA WITH CAUTION...ESPECIALLY DEWPOINT AND RELATIVE
    HUMIDITY OBSERVATIONS.

INZ001>003-010>013-019-020-171000-
NORTHWEST INDIANA

CITY           SKY/WX    TMP DP  RH WIND       PRES   REMARKS
MONTICELLO +   CLOUDY    53  52  96 S7        29.77F
VALPARAISO     RAIN      51  51 100 S12       29.75F FOG

$$

LMZ046-743>745-171000-
SOUTHERN LAKE MICHIGAN

STATION/POSITION TIME  TEMP    WIND        PRES    WAVE
                       AIR SEA DIR/SP/G            HT
                 (UTC) (F)     (DEG/KT/KT) (MB)    (FT)
BURNS HARBOR     0840   51     190/ 13/ 17 1007.8F

$$

INZ004-005-014>016-021>024-171000-
NORTH CENTRAL INDIANA

CITY           SKY/WX    TMP DP  RH WIND       PRES   REMARKS
GOSHEN         FOG       44  42  93 SE9       29.79F VSB 1
PERU/GRISSOM   CLOUDY    52  52 100 S12       29.79F
SOUTH BEND     RAIN      42  42 100 SE13      29.76F VSB 1/2

$$

INZ006>009-017-018-025>027-171000-
NORTHEAST INDIANA

CITY           SKY/WX    TMP DP  RH WIND       PRES   REMARKS
ANGOLA *+      CLOUDY    36  36 100 E10       29.84F VSB 1/2
FORT WAYNE     LGT RAIN  46  45  96 SE8       29.84F VSB 1/8
KENDALLVILLE + FOG       38  38 100 SE9       29.84F VSB 1/4

$$

INZ028-029-035-036-043>045-051>053-171000-
WEST CENTRAL INDIANA

CITY           SKY/WX    TMP DP  RH WIND       PRES   REMARKS
CRAWFORDSVL +  CLOUDY    55  55 100 S15G24    29.80F
LAFAYETTE      CLOUDY    56  55  97 S14G21    29.78F
TERRE HAUTE    CLOUDY    57  55  93 S20       29.82F

$$

INZ030>032-037>040-046>048-054>057-064-065-171000-
CENTRAL INDIANA

CITY           SKY/WX    TMP DP  RH WIND       PRES   REMARKS
INDIANAPOLIS   MOCLDY    55  54  96 S12       29.83F
-EAGLE CREEK   CLOUDY    56  54  93 SE6       29.83F
KOKOMO +       CLOUDY    52  51  97 S15       29.82F
MT COMFORT *+  CLOUDY    54  54 100 S13       29.86F
SHELBYVILLE    CLOUDY    57  53  86 S13       29.87F

$$

INZ033-034-041-042-049-050-058-059-171000-
EAST CENTRAL INDIANA

CITY           SKY/WX    TMP DP  RH WIND       PRES   REMARKS
MUNCIE         CLOUDY    56  53  90 S14G24    29.85F

$$

INZ060-061-067>069-081>083-085>088-171000-
SOUTHWEST INDIANA

CITY           SKY/WX    TMP DP  RH WIND       PRES   REMARKS
EVANSVILLE     CLOUDY    61  57  87 S14       29.90F
HUNTINGBURG *+ CLOUDY    59  57  94 S13       29.90S

$$

INZ062-063-066-070>080-084-089>092-171000-
SOUTH CENTRAL AND SOUTHEAST INDIANA

CITY           SKY/WX    TMP DP  RH WIND       PRES   REMARKS
BLOOMINGTON    CLOUDY    59  54  83 S14       29.86F
MADISON *+     CLOUDY    55  54  94 S9        29.94F
SEYMOUR +      DRIZZLE   57  57 100 S13       29.89F

$$





USA.gov is the U.S. government's official web portal to all federal, state and local government web resources and services.